Location: Newark
(15.4608°S, 41.1635°W)
Time: 10:18:48
(UTC+00:00)

Vanguard 3 - Pass Details

Date: 05 August 2021
Orbit: 510 x 3260 km, 33.3° (Epoch: 22 September)

Event Time Altitude Azimuth Distance (km) Brightness Sun altitude
Rises 01:24:08 0° 335° (NNW) 7,210 12.1 -69.2°
Reaches altitude 10° 01:31:26 10° 350° (N) 6,112 11.6 -70.9°
Enters shadow 01:34:33 14° 358° (N) 5,680 11.4 -71.7°
Maximum altitude 01:43:31 20° 30° (NNE) 4,766 - -73.8°
Drops below altitude 10° 01:53:11 10° 71° (ENE) 4,863 - -76.1°
Sets 01:57:50 0° 87° (E) 5,411 - -77.2°
